Regional Weather Roundup
Issued by NWS

Home | Current Version | Previous Version | Text Only | Print | Product List | Glossary Off
Versions: 1 2 3 4 5 6 7 8 9 10 11 12 13 14 15 16 17 18 19 20 21 22 23 24 25 26 27 28 29 30 31 32 33 34 35 36 37 38 39 40 41 42 43 44 45 46 47 48 49 50

000
ASUS43 KMKX 202111
RWRWI

WISCONSIN REGIONAL WEATHER ROUNDUP
NATIONAL WEATHER SERVICE MILWAUKEE/SULLIVAN WI
400 PM CDT SUN APR 20 2014

NOTE: "FAIR" INDICATES FEW OR NO CLOUDS BELOW 12,000 FEET WITH NO
SIGNIFICANT WEATHER AND/OR OBSTRUCTIONS TO VISIBILITY.

WIZ001-002-006>008-014>016-023>028-202200-
NORTHWEST WISCONSIN

CITY           SKY/WX    TMP DP  RH WIND       PRES   REMARKS
SUPERIOR ARPT  SUNNY     63  39  41 E5        29.99F
ASHLAND        SUNNY     58  42  55 N9        30.00F
HAYWARD        SUNNY     70  29  21 W6        29.99F
SIREN          SUNNY     70  31  24 NW7       29.99F
RICE LAKE      MOSUNNY   72  36  27 W3        30.00S
LADYSMITH      MOSUNNY   69  45  41 S7        30.01S
EAU CLAIRE     PTSUNNY   68  50  52 S10       29.99F
MENOMONIE      PTCLDY    69  48  47 S3        30.00S
NEW RICHMOND   SUNNY     72  38  29 CALM      29.98F
OSCEOLA        SUNNY     74  36  25 SE6       29.99F
$$

WIZ003>005-009-010-017-018-202200-
NORTH CENTRAL WISCONSIN

CITY           SKY/WX    TMP DP  RH WIND       PRES   REMARKS
WOODRUFF       MOSUNNY   67  44  43 S10       29.99F
RHINELANDER    CLOUDY    62  49  62 S9        30.02F
EAGLE RIVER    MOSUNNY   67  38  35 SW9       29.99F
LAND O LAKES   MOSUNNY   67  31  26 W12       30.00F
PHILLIPS       SUNNY     69  44  40 SW5       29.98F
TOMAHAWK       CLOUDY    64  51  61 CALM      30.01F
MEDFORD        CLOUDY    57  52  82 S9        30.03S
MERRILL        CLOUDY    60  51  71 CALM      30.03S
$$

WIZ029-030-035-036-043>047-202200-
CENTRAL WISCONSIN

CITY           SKY/WX    TMP DP  RH WIND       PRES   REMARKS
WAUSAU         CLOUDY    57  50  77 S3        30.03S
MOSINEE        NOT AVBL
MARSHFIELD     CLOUDY    59  53  80 SW10      30.04S
STEVENS POINT  CLOUDY    56  51  81 SW6       30.06S
WAUPACA        LGT RAIN  57  52  82 S7        30.06F
WAUTOMA        LGT RAIN  57  55  93 S3        30.06F
WISC RAPIDS    CLOUDY    58  53  84 SW6       30.07S
CAMP DOUGLAS   CLOUDY    57  57 100 SE3       30.04F
$$

WIZ011>013-019>022-031-037>040-048>050-202200-
NORTHEAST WISCONSIN

CITY           SKY/WX    TMP DP  RH WIND       PRES   REMARKS
ANTIGO         CLOUDY    58  50  76 SW9       30.04F
STURGEON BAY   CLOUDY    43  37  81 S7        30.08F
GREEN BAY      LGT RAIN  57  48  72 S6        30.07F
MANITOWOC      LGT RAIN  51  38  60 SE6       30.09F
APPLETON       CLOUDY    57  46  67 VRB5      30.08F
CLINTONVILLE   CLOUDY    54  50  87 SW3       30.06F
OSHKOSH        LGT RAIN  61  53  75 CALM      30.08S
$$

WIZ032>034-041-042-053>061-202200-
SOUTHWEST WISCONSIN

CITY           SKY/WX    TMP DP  RH WIND       PRES   REMARKS
LA CROSSE      CLOUDY    58  53  84 S5        30.02F
SPARTA         CLOUDY    60  54  80 S6        30.04F
VIROQUA        CLOUDY    57  57  99 S8        30.03F
BOSCOBEL       CLOUDY    62  55  77 NE3       30.03F
PRAIRIE DU CHI CLOUDY    60  55  82 SE6       30.03R
PLATTEVILLE    FAIR      75  46  35 N9        30.04F
$$

WIZ056-057-062-063-064-067-068-202200-
SOUTH CENTRAL WISCONSIN

CITY           SKY/WX    TMP DP  RH WIND       PRES   REMARKS
BARABOO/DELLS  LGT RAIN  59  53  80 CALM      30.06F
LONE ROCK      LGT RAIN  66  52  60 N7        30.04F
WATERTOWN      PTSUNNY   76  46  34 S13       30.05F
MADISON        CLOUDY    73  44  35 N13       30.06S
MIDDLETON      MOCLDY    72  44  37 N10G16    30.06S
MONROE         MOSUNNY   77  43  29 S9G22     30.05F
JANESVILLE     SUNNY     82  37  20 S12G17    30.05F HX  80
$$

WIZ051-052-058>065-066-070>072-202200-
SOUTHEAST WISCONSIN

CITY           SKY/WX    TMP DP  RH WIND       PRES   REMARKS
MILWAUKEE      PTSUNNY   71  41  33 SE17      30.07F
WAUKESHA       MOSUNNY   73  43  33 S15       30.07F
MILWAUKEE/TIMM SUNNY     75  37  25 SW14G20   30.06F
RACINE         MOSUNNY   65  38  36 S16       30.09F
BURLINGTON     MOSUNNY   77  40  26 SW18      30.06F
KENOSHA        MOSUNNY   76  43  30 S14       30.07F
FOND DU LAC    CLOUDY    68  43  40 CALM      30.07F
SHEBOYGAN      CLOUDY    63  42  46 SE5       30.08F
WEST BEND      CLOUDY    73  37  27 SW7       30.06S
JUNEAU         CLOUDY    71  36  27 W6        30.07S
$$

LSZ147-162-202200-
LAKE SUPERIOR

STATION/POSITION TIME  TEMP    WIND        PRES    WAVE
                       AIR SEA DIR/SP/G            HT/PER
                 (UTC) (F)     (DEG/KT/KT) (MB)    (FT/S)
DEVILS ISLAND    2100   44     290/  2/  3 1016.9F
PORT WING        2000   46      10/  2/  3 1016.6
SAXON HARBOR     2000             CALM     1016.9F
$$

LMZ867-665-643>646-202200-
LAKE MICHIGAN

STATION/POSITION TIME  TEMP    WIND        PRES    WAVE
                       AIR SEA DIR/SP/G            HT/PER
                 (UTC) (F)     (DEG/KT/KT) (MB)    (FT/S)
NORTHPORT PIER   2000   40     150/  6/ 10 1018.6S
SISTER BAY       2009   44     160/  6/  8   N/A
KEWAUNEE LAKESHO 2000   38     170/  9/ 10 1020.1F
SHEBOYGAN LAKESH 2100   45     160/ 10/ 12 1019.5F
PORT WASHINGTON  2040   49     140/  4/  7 1019.0F
MILWAUKEE LAKESH 2000   46     140/ 15/ 21   N/A
KENOSHA   LAKESH 2100   51     170/ 14/ 15   N/A
$$

TC  - TEMPERATURE IN CELSIUS
VSB - VISIBILITY IN STATUTE MILES
WCI - WIND CHILL INDEX
HX  - HEAT INDEX




USA.gov is the U.S. government's official web portal to all federal, state and local government web resources and services.